CDT,Max TemperatureF,Mean TemperatureF,Min TemperatureF,Max Dew PointF,MeanDew PointF,Min DewpointF,Max Humidity, Mean Humidity, Min Humidity, Max Sea Level PressureIn, Mean Sea Level PressureIn, Min Sea Level PressureIn, Max VisibilityMiles, Mean VisibilityMiles, Min VisibilityMiles, Max Wind SpeedMPH, Mean Wind SpeedMPH, Max Gust SpeedMPH,PrecipitationIn, CloudCover, Events, WindDirDegrees
2013-8-1,91,80,69,73,70,64,100,73,43,30.02,29.98,29.95,10,9,4,9,2,,0.00,2,,351
2013-8-2,91,78,64,72,68,63,100,74,40,30.04,30.00,29.97,10,9,3,6,1,,0.00,2,,94
2013-8-3,89,78,68,77,72,68,100,81,59,30.06,30.02,29.98,10,9,5,8,1,,0.00,1,Thunderstorm,245
2013-8-4,89,80,71,73,71,68,100,76,49,30.10,30.05,30.01,10,8,2,8,2,,0.00,1,,4
2013-8-5,89,80,71,73,71,70,100,84,55,30.07,30.02,29.96,10,9,2,13,1,25,0.95,3,Rain-Thunderstorm,172
2013-8-6,93,81,69,77,72,70,100,89,52,29.99,29.96,29.92,10,8,1,14,2,24,1.53,2,Rain-Thunderstorm,178
2013-8-7,91,80,69,77,73,68,100,85,59,29.99,29.94,29.90,10,9,5,13,1,20,0.03,1,Rain-Thunderstorm,151
2013-8-8,93,82,71,77,73,68,100,81,55,29.99,29.95,29.90,10,9,3,18,2,26,0.15,2,Rain-Thunderstorm,137
2013-8-9,89,81,71,79,74,70,100,84,59,30.06,30.00,29.96,10,8,2,10,3,16,0.00,2,Thunderstorm,156
2013-8-10,87,78,69,77,72,68,100,86,62,30.12,30.07,30.04,10,9,2,12,1,,0.60,1,Rain-Thunderstorm,169
2013-8-11,89,79,69,77,72,70,100,81,52,30.15,30.10,30.06,10,9,3,6,1,,0.00,2,Rain-Thunderstorm,186
2013-8-12,89,79,69,77,72,70,100,79,55,30.12,30.05,29.96,10,10,5,9,1,,0.00,2,Rain-Thunderstorm,233
2013-8-13,87,78,69,73,71,70,100,84,58,30.02,29.97,29.92,10,9,5,8,1,,0.00,4,Rain,313
2013-8-14,82,75,68,72,68,61,94,82,58,30.03,29.98,29.93,10,8,2,9,3,,1.36,5,Rain,10
2013-8-15,82,71,60,66,62,59,100,77,51,30.05,30.01,29.97,10,10,10,6,1,,0.00,1,,344
2013-8-16,80,71,62,68,66,63,100,83,61,30.06,30.02,29.99,10,9,5,7,2,,0.00,5,,98
2013-8-17,80,72,64,68,65,63,100,84,54,30.09,30.05,30.01,10,8,4,8,3,,0.00,5,,98
2013-8-18,78,71,64,68,67,63,100,89,69,30.13,30.08,30.05,10,9,2,10,2,,0.04,7,Rain,109
2013-8-19,80,74,68,72,69,68,100,90,70,30.09,30.05,30.00,10,9,2,7,3,,0.01,6,Rain,45
2013-8-20,86,76,66,73,71,64,100,88,62,30.12,30.06,30.02,10,7,0,9,0,,0.01,5,Fog,126
2013-8-21,87,78,69,75,72,68,100,86,58,30.18,30.11,30.07,10,8,2,7,1,,0.00,2,,152
2013-8-22,89,78,68,75,71,68,100,81,49,30.14,30.08,30.01,10,8,1,6,0,,0.00,3,,92
2013-8-23,87,78,68,77,72,68,100,85,58,30.07,30.03,29.98,10,8,2,8,1,,0.35,1,Rain-Thunderstorm,51
2013-8-24,89,79,69,75,71,70,100,82,55,30.16,30.09,30.04,10,8,0,9,1,,0.00,2,Fog-Rain-Thunderstorm,104
2013-8-25,86,78,71,72,70,70,94,80,58,30.27,30.21,30.16,10,8,4,10,3,,0.00,3,,113
2013-8-26,86,74,62,68,64,59,100,74,40,30.28,30.21,30.15,10,9,7,10,2,,0.00,1,,108
2013-8-27,84,70,57,68,62,55,100,77,42,30.17,30.13,30.07,10,8,2,7,0,,0.00,1,,65
2013-8-28,87,74,60,72,65,59,100,78,46,30.12,30.07,30.03,10,8,3,5,0,,0.00,2,,175
2013-8-29,89,76,62,72,66,63,100,76,43,30.11,30.04,29.99,10,8,3,5,0,,0.00,0,,308
2013-8-30,91,78,66,75,69,64,100,76,46,30.04,29.98,29.92,10,8,3,5,0,,0.00,1,,288
2013-8-31,95,82,68,73,70,66,100,76,44,29.98,29.92,29.87,10,7,2,6,0,,0.00,0,,232